Home   Weather   Bismarck   Past weeks
Flag for USA

Past Weather in Bismarck, North Dakota, USA — Yesterday and Last 2 Weeks

Now
66 °F

Sunny.


Feels Like: 66 °F
Forecast: 86 / 66 °F
Wind: 3 mph from West

Location: Bismarck Municipal Airport

Current Time: Jul 18, 2019 at 10:21:20 am

Latest Report: Jul 18, 2019 at 8:52 am


Visibility: 10 mi

Pressure: 29.67 "Hg (27.94 "Hg at 513m altitude)

Humidity: 93%

Dew Point: 64 °F

Location of BismarckLocation

Past Weather in Bismarck — Graph

°F

Bismarck Temperature Yesterday

Maximum temperature yesterday: 86 °F (at 4:52 pm)
Minimum temperature yesterday: 64 °F (at 6:52 am)
Average temperature yesterday: 72 °F

High & Low Weather Summary for the Past Weeks

 TemperatureHumidityPressure
High92 °F (Jul 15, 4:52 pm)100% (Jul 4, 5:52 am)30.30 "Hg (Jul 4, 5:52 am)
Low58 °F (Jul 4, 5:52 am)29% (Jul 15, 5:52 pm)29.65 "Hg (Jul 18, 2:00 am)
Average72 °F78%29.91 "Hg
* Reported Jul 3 8:52 am — Jul 18 8:52 am, Bismarck. Weather by CustomWeather, © 2019

Note: Actual official high and low records may vary slightly from our data, if they occured in-between our weather recording intervals... More about our weather records

Advertising

Bismarck Weather History for the Previous 24 Hours

Scroll right to see more
 ConditionsComfort  
Time TempWeatherWind HumidityBarometerVisibility
8:52 am
Thu, Jul 18
66 °FSunny.3 mph93%29.67 "Hg10 mi
7:52 am65 °FScattered clouds.No wind94%29.66 "Hg10 mi
6:52 am63 °FLight rain. Scattered clouds.3 mph93%29.66 "Hg10 mi
5:52 am63 °FClear.5 mph93%29.67 "Hg10 mi
4:52 am62 °FClear.5 mph93%29.68 "Hg10 mi
4:06 am63 °FPassing clouds.7 mph90%29.70 "Hg10 mi
3:34 am63 °FThunderstorms. Partly cloudy.12 mph93%29.65 "Hg10 mi
3:07 am64 °FThundershowers. Passing clouds.6 mph90%29.71 "Hg10 mi
2:00 am64 °FLight rain. Mostly cloudy.6 mph87%29.65 "Hg10 mi
1:33 am63 °FThundershowers. Mostly cloudy.16 mph93%29.74 "Hg7 mi
12:52 am63 °FStrong thunderstorms. Fog.13 mph93%29.72 "Hg3 mi
12:39 am65 °FStrong thunderstorms. Fog.18 mph87%29.77 "Hg2 mi
12:32 am68 °FThunderstorms. Partly cloudy.20 mph76%29.76 "Hg10 mi
11:52 pm
Wed, Jul 17
66 °FClear.No wind87%29.68 "Hg10 mi
11:09 pm65 °FPassing clouds.8 mph87%29.68 "Hg10 mi
10:52 pm67 °FThundershowers. Partly cloudy.10 mph87%29.70 "Hg10 mi
10:23 pm70 °FThunderstorms. Overcast.7 mph84%29.78 "Hg10 mi
8:52 pm77 °FSunny.5 mph66%29.70 "Hg10 mi
7:52 pm81 °FSunny.5 mph49%29.70 "Hg10 mi
6:52 pm84 °FSunny.7 mph41%29.70 "Hg9 mi
5:52 pm84 °FSunny.7 mph43%29.72 "Hg10 mi
4:52 pm86 °FSunny.8 mph37%29.73 "Hg10 mi
3:52 pm85 °FSunny.10 mph42%29.74 "Hg10 mi
2:52 pm84 °FPassing clouds.8 mph49%29.74 "Hg10 mi
1:52 pm81 °FSunny.7 mph56%29.75 "Hg10 mi
12:52 pm78 °FSunny.9 mph64%29.75 "Hg10 mi
11:52 am75 °FSunny.13 mph66%29.75 "Hg10 mi
11:22 am74 °FScattered clouds.9 mph74%29.77 "Hg10 mi
10:52 am72 °FPartly sunny.10 mph78%29.75 "Hg10 mi
10:36 am72 °FScattered clouds.14 mph78%29.78 "Hg10 mi
10:20 am71 °FPartly sunny.10 mph81%29.77 "Hg10 mi
Weather by CustomWeather, © 2019

See weather overview